Skip Page Navigation
NASA JPL Caltech
NASA Logo - Jet Propulsion Laboratory + View the NASA Portal
+ Center for Near-Earth Object Studies
JPL Home Earth Solar System Stars & Galaxies Technology
JPL Solar System Dynamics
BODIES ORBITS EPHEMERIDES TOOLS PHYSICAL DATA DISCOVERY FAQ SITE MAP
IMPORTANT: The SSD Announcement email list is now available. Major changes are coming in the near future, including possible hostname and/or URL changes. To be notified of such changes, subscribe to this email list.

Please visit this page for more details.


JPL Small-Body Database Browser
Search: [ help ]  
47849 (2000 EY135)
Classification: Main-belt Asteroid          SPK-ID: 2047849
Ephemeris | Orbit Diagram | Orbital Elements | Mission Design | Physical Parameters | Discovery Circumstances ]

[ show orbit diagram ]
Orbital Elements at Epoch 2458600.5 (2019-Apr-27.0) TDB
Reference: JPL 24 (heliocentric ecliptic J2000)
 Element Value Uncertainty (1-sigma)   Units 
e .1108237760657061 4.693e-08  
a 3.010433949880367 1.8296e-08 au
q 2.676806291958227 1.3985e-07 au
i 7.776275668969875 4.3501e-06 deg
node 83.3463633613068 3.4383e-05 deg
peri 282.487080514655 3.9236e-05 deg
M 57.19269352570848 1.8722e-05 deg
tp 2458297.404051560233
(2018-Jun-27.90405156)
9.9097e-05 TDB
period 1907.840577385437
5.22
1.7393e-05
4.762e-08
d
yr
n .1886950116625337 1.7202e-09 deg/d
Q 3.344061607802508 2.0324e-08 au
  Orbit Determination Parameters
   # obs. used (total)      1144  
   data-arc span      9873 days (27.03 yr)  
   first obs. used      1992-11-16  
   last obs. used      2019-11-28  
   planetary ephem.      DE431  
   SB-pert. ephem.      SB431-N16  
   condition code      0  
   norm. resid. RMS      .53064  
   source      ORB  
   producer      Otto Matic  
   solution date      2019-Dec-04 03:29:52  

Additional Information
 Earth MOID = 1.68852 au 
 Jupiter MOID = 2.16357 au 
 T_jup = 3.226 
[ show covariance matrix ]

Ephemeris | Orbit Diagram | Orbital Elements | Mission Design | Physical Parameters | Discovery Circumstances ]

Physical Parameter Table
Parameter Symbol Value Units Sigma Reference Notes
absolute magnitude H 13.9   n/a MPO417148  
diameter diameter 6.730 km 0.192 urn:nasa:pds:neowise_diameters_albedos::2.0[mainbelt] (http://adsabs.harvard.edu/abs/2011ApJ...741...68M)  
geometric albedo albedo 0.107   0.009 urn:nasa:pds:neowise_diameters_albedos::2.0[mainbelt] (http://adsabs.harvard.edu/abs/2011ApJ...741...68M)  

47849 (2000 EY135)          Discovered 2000-Mar-11 by LONEOS at Anderson Mesa
Reference: 20020921/Numbers.arcLast Updated: 2004-04-19
Ephemeris | Orbit Diagram | Orbital Elements | Mission Design | Physical Parameters | Discovery Circumstances ]
ABOUT SSD CREDITS/AWARDS PRIVACY/COPYRIGHT GLOSSARY LINKS
FirstGov 2020-Jan-22 20:56 UT
(server date/time)  
NASA Home Page
Site Manager:   Ryan S. Park
Webmaster  Alan B. Chamberlin